User: anonymous   Login
Location: Berua Church
(35.0423°N, 88.5987°W)
Time: 08:16:30
(UTC+00:00)
Language:

AQUARIUS - Orbit

View from above orbital plane
View from above orbital plane
View from above satellite
View from above satellite

Ground track
Ground track

The orbit data is extracted from the following two-line orbital elements,

1 37673U 11024A   20057.46976635 +.00000055 +00000-0 +16229-4 0  9998
2 37673 098.0101 066.6161 0000760 066.5017 099.2848 14.72968708468359
Epoch (UTC): 26 February 2020 11:16:27
Eccentricity: 0.0000760
inclination: 98.0101°
perigee height: 651 km
apogee height: 652 km
right ascension of ascending node: 66.6161°
argument of perigee: 66.5017°
revolutions per day: 14.72968708
mean anomaly at epoch: 99.2848°
orbit number at epoch: 46835

The dashed part of the orbit path shows where the satellite is in the earth's shadow,  

DLR